TimeEDT,TemperatureF,Dew PointF,Humidity,Sea Level PressureIn,VisibilityMPH,Wind Direction,Wind SpeedMPH,Gust SpeedMPH,PrecipitationIn,Events,Conditions,WindDirDegrees,DateUTC
12:53 AM,35.1,30.0,82,30.11,10.0,SSW,4.6,-,N/A,,Overcast,210,2013-03-27 04:53:00
1:49 AM,35.6,26.6,70,30.09,10.0,WSW,4.6,-,N/A,,Overcast,240,2013-03-27 05:49:00
1:53 AM,35.1,27.0,72,30.12,10.0,WSW,4.6,-,N/A,,Overcast,250,2013-03-27 05:53:00
2:53 AM,34.0,27.0,75,30.12,10.0,WSW,4.6,-,N/A,,Overcast,240,2013-03-27 06:53:00
3:53 AM,34.0,27.0,75,30.10,10.0,SW,5.8,-,N/A,,Overcast,220,2013-03-27 07:53:00
4:50 AM,33.8,28.4,81,30.08,1.8,SW,4.6,-,0.00,Snow,Light Snow,230,2013-03-27 08:50:00
4:53 AM,33.1,28.0,82,30.11,1.2,WSW,4.6,-,0.00,Snow,Light Snow,240,2013-03-27 08:53:00
5:03 AM,33.8,28.4,81,30.08,2.0,SW,3.5,-,0.01,Snow,Light Snow,230,2013-03-27 09:03:00
5:12 AM,33.8,28.4,81,30.08,5.0,SW,3.5,-,0.01,,Overcast,230,2013-03-27 09:12:00
5:45 AM,33.8,28.4,81,30.08,2.5,WSW,3.5,-,0.01,Snow,Light Snow,250,2013-03-27 09:45:00
5:53 AM,33.1,28.9,85,30.12,5.0,Variable,5.8,-,0.01,,Overcast,0,2013-03-27 09:53:00
6:03 AM,33.8,28.4,81,30.09,8.0,SW,3.5,-,N/A,,Overcast,230,2013-03-27 10:03:00
6:23 AM,33.8,28.4,81,30.09,5.0,WSW,3.5,-,N/A,,Haze,240,2013-03-27 10:23:00
6:53 AM,34.0,30.0,85,30.13,6.0,West,3.5,-,N/A,,Overcast,270,2013-03-27 10:53:00
7:53 AM,34.0,28.9,82,30.15,8.0,WSW,4.6,-,N/A,,Overcast,250,2013-03-27 11:53:00
8:53 AM,34.0,28.9,82,30.16,10.0,Variable,4.6,-,N/A,,Overcast,0,2013-03-27 12:53:00
9:53 AM,35.1,28.9,78,30.17,8.0,Variable,4.6,-,N/A,,Overcast,0,2013-03-27 13:53:00
10:53 AM,35.1,28.0,76,30.17,10.0,West,8.1,-,N/A,,Overcast,270,2013-03-27 14:53:00
11:07 AM,35.6,28.4,75,30.14,2.5,West,4.6,-,0.00,Snow,Light Snow,260,2013-03-27 15:07:00
11:11 AM,35.6,28.4,75,30.15,1.8,West,8.1,-,0.00,Snow,Light Snow,280,2013-03-27 15:11:00
11:18 AM,35.6,28.4,75,30.15,3.0,Variable,6.9,-,0.00,Snow,Light Snow,0,2013-03-27 15:18:00
11:53 AM,37.0,30.0,76,30.18,10.0,Variable,5.8,-,0.00,,Overcast,0,2013-03-27 15:53:00
12:53 PM,39.0,28.0,65,30.18,10.0,West,6.9,-,N/A,,Mostly Cloudy,270,2013-03-27 16:53:00
1:04 PM,39.2,28.4,65,30.15,10.0,West,6.9,-,N/A,,Mostly Cloudy,280,2013-03-27 17:04:00
1:17 PM,41.0,26.6,57,30.15,10.0,WNW,9.2,-,N/A,,Mostly Cloudy,290,2013-03-27 17:17:00
1:53 PM,39.0,26.1,60,30.17,4.0,West,10.4,20.7,0.00,,Unknown,270,2013-03-27 17:53:00
2:53 PM,42.1,24.1,49,30.15,10.0,West,10.4,16.1,0.00,,Overcast,280,2013-03-27 18:53:00
3:53 PM,43.0,25.0,49,30.14,10.0,West,11.5,20.7,N/A,,Mostly Cloudy,270,2013-03-27 19:53:00
4:53 PM,43.0,24.1,47,30.15,10.0,West,9.2,17.3,N/A,,Overcast,280,2013-03-27 20:53:00
5:53 PM,42.1,21.9,45,30.16,10.0,West,10.4,17.3,N/A,,Overcast,280,2013-03-27 21:53:00
6:53 PM,41.0,21.9,47,30.17,10.0,West,10.4,17.3,N/A,,Mostly Cloudy,280,2013-03-27 22:53:00
7:53 PM,41.0,23.0,49,30.18,10.0,West,8.1,-,N/A,,Overcast,270,2013-03-27 23:53:00
8:53 PM,39.9,23.0,51,30.19,10.0,Variable,3.5,-,N/A,,Overcast,0,2013-03-28 00:53:00
9:53 PM,39.9,23.0,51,30.19,10.0,West,6.9,-,N/A,,Overcast,280,2013-03-28 01:53:00
10:53 PM,39.0,23.0,53,30.20,10.0,West,8.1,-,N/A,,Overcast,270,2013-03-28 02:53:00
11:53 PM,39.0,23.0,53,30.20,10.0,Variable,5.8,-,N/A,,Overcast,0,2013-03-28 03:53:00